QPF
0.00 0.01 0.01 0.02 0.01 0.00 0.01 0.01 0.01 0.01 0.01 0.01 0.00 0.01 0.01 0.01 0.01 0.01 0.04 0.05 0.02 0.02 0.03 0.05 0.09 0.09 0.07 0.07 0.07 0.06 0.05 0.06 0.07 0.03 0.03 0.04 0.04 0.03 0.04 0.04 0.04 0.06 0.05 0.04 0.04 0.10 0.18 0.13 0.09
0.00 0.01 0.02 0.01 0.01 0.01 0.01 0.01 0.01 0.01 0.01 0.01 0.00 0.01 0.00 0.00 0.00 0.02 0.04 0.05 0.03 0.02 0.02 0.03 0.07 0.07 0.06 0.08 0.06 0.06 0.05 0.06 0.05 0.03 0.03 0.03 0.04 0.03 0.03 0.03 0.04 0.05 0.05 0.04 0.06 0.07 0.08 0.09 0.06
0.00 0.01 0.01 0.01 0.01 0.02 0.03 0.02 0.01 0.01 0.01 0.01 0.02 0.01 0.01 0.00 0.00 0.01 0.02 0.02 0.02 0.01 0.01 0.02 0.03 0.02 0.03 0.05 0.06 0.05 0.04 0.06 0.05 0.03 0.02 0.02 0.04 0.04 0.05 0.04 0.03 0.03 0.04 0.06 0.07 0.06 0.06 0.07 0.06
0.00 0.01 0.00 0.00 0.01 0.02 0.02 0.02 0.01 0.01 0.01 0.00 0.01 0.01 0.01 0.01 0.01 0.01 0.02 0.04 0.02 0.01 0.01 0.02 0.02 0.01 0.02 0.02 0.03 0.03 0.03 0.04 0.05 0.02 0.02 0.02 0.02 0.03 0.04 0.04 0.05 0.05 0.06 0.07 0.07 0.05 0.05 0.05 0.06
0.01 0.01 0.00 0.00 0.01 0.03 0.01 0.01 0.01 0.00 0.00 0.00 0.00 0.00 0.01 0.01 0.01 0.01 0.01 0.02 0.01 0.01 0.00 0.01 0.02 0.02 0.02 0.03 0.02 0.03 0.03 0.04 0.03 0.03 0.02 0.02 0.03 0.04 0.04 0.05 0.05 0.05 0.05 0.05 0.03 0.04 0.05 0.04 0.05
0.00 0.00 0.00 0.01 0.01 0.02 0.02 0.00 0.01 0.00 0.00 0.00 0.00 0.00 0.01 0.01 0.01 0.02 0.02 0.02 0.01 0.00 0.01 0.01 0.01 0.02 0.02 0.02 0.02 0.03 0.02 0.03 0.05 0.04 0.03 0.03 0.03 0.03 0.04 0.05 0.05 0.03 0.02 0.02 0.02 0.02 0.03 0.03 0.04
0.00 0.00 0.00 0.01 0.01 0.01 0.00 0.00 0.00 0.00 0.00 0.00 0.00 0.00 0.01 0.01 0.01 0.02 0.02 0.02 0.01 0.01 0.01 0.01 0.01 0.01 0.01 0.02 0.02 0.02 0.02 0.03 0.04 0.04 0.03 0.03 0.04 0.03 0.04 0.06 0.04 0.02 0.03 0.03 0.02 0.03 0.02 0.03 0.04
0.01 0.00 0.00 0.01 0.01 0.01 0.00 0.00 0.00 0.00 0.00 0.00 0.00 0.00 0.00 0.01 0.01 0.01 0.02 0.02 0.01 0.00 0.01 0.01 0.01 0.00 0.00 0.01 0.03 0.04 0.03 0.02 0.02 0.02 0.02 0.03 0.04 0.04 0.05 0.04 0.03 0.02 0.02 0.03 0.04 0.05 0.05 0.04 0.05
0.01 0.01 0.00 0.01 0.01 0.00 0.00 0.00 0.00 0.00 0.00 0.00 0.00 0.00 0.00 0.01 0.01 0.01 0.01 0.01 0.01 0.01 0.01 0.01 0.01 0.01 0.00 0.01 0.02 0.03 0.02 0.02 0.02 0.01 0.02 0.01 0.01 0.01 0.02 0.03 0.04 0.04 0.03 0.03 0.04 0.05 0.06 0.05 0.05
0.01 0.00 0.00 0.01 0.01 0.00 0.00 0.00 0.00 0.00 0.00 0.00 0.00 0.00 0.00 0.00 0.00 0.01 0.01 0.01 0.00 0.01 0.01 0.01 0.01 0.01 0.01 0.01 0.01 0.01 0.02 0.01 0.01 0.01 0.01 0.00 0.00 0.00 0.01 0.02 0.03 0.04 0.04 0.04 0.04 0.04 0.03 0.01 0.01
0.00 0.00 0.00 0.00 0.00 0.00 0.00 0.00 0.00 0.00 0.00 0.00 0.00 0.00 0.00 0.00 0.00 0.01 0.01 0.01 0.01 0.01 0.01 0.01 0.02 0.02 0.02 0.02 0.02 0.01 0.02 0.01 0.01 0.01 0.00 0.00 0.00 0.00 0.01 0.01 0.01 0.02 0.03 0.02 0.02 0.01 0.01 0.00 0.00
0.00 0.00 0.00 0.00 0.00 0.01 0.00 0.00 0.00 0.00 0.00 0.00 0.00 0.00 0.00 0.00 0.00 0.00 0.00 0.00 0.01 0.01 0.01 0.01 0.02 0.02 0.01 0.01 0.01 0.02 0.02 0.01 0.01 0.01 0.00 0.00 0.01 0.01 0.01 0.01 0.01 0.02 0.02 0.01 0.01 0.01 0.00 0.00 0.00
0.00 0.00 0.00 0.00 0.00 0.00 0.01 0.01 0.01 0.00 0.00 0.00 0.00 0.00 0.00 0.00 0.00 0.00 0.01 0.00 0.00 0.00 0.00 0.01 0.02 0.01 0.01 0.01 0.01 0.01 0.02 0.01 0.01 0.01 0.01 0.01 0.01 0.01 0.01 0.01 0.01 0.01 0.01 0.01 0.01 0.01 0.01 0.00 0.00
0.00 0.00 0.01 0.01 0.00 0.00 0.01 0.00 0.00 0.00 0.00 0.00 0.00 0.00 0.00 0.00 0.00 0.00 0.00 0.00 0.01 0.01 0.01 0.03 0.03 0.02 0.01 0.01 0.01 0.01 0.03 0.01 0.01 0.02 0.02 0.02 0.02 0.02 0.01 0.01 0.01 0.01 0.01 0.02 0.02 0.02 0.03 0.02 0.01
0.01 0.01 0.02 0.01 0.01 0.01 0.00 0.00 0.00 0.00 0.00 0.00 0.00 0.00 0.00 0.00 0.00 0.00 0.00 0.01 0.01 0.01 0.03 0.04 0.04 0.04 0.03 0.01 0.00 0.01 0.02 0.02 0.01 0.01 0.03 0.03 0.03 0.02 0.02 0.01 0.01 0.01 0.01 0.02 0.03 0.03 0.02 0.01 0.01
0.01 0.02 0.02 0.01 0.01 0.01 0.01 0.01 0.00 0.00 0.00 0.00 0.00 0.00 0.00 0.00 0.00 0.00 0.00 0.00 0.00 0.00 0.02 0.04 0.03 0.02 0.03 0.02 0.01 0.01 0.01 0.01 0.02 0.02 0.02 0.02 0.03 0.02 0.01 0.01 0.01 0.01 0.02 0.03 0.04 0.03 0.01 0.00 0.00
0.02 0.02 0.02 0.02 0.01 0.00 0.00 0.00 0.00 0.01 0.00 0.01 0.01 0.01 0.00 0.00 0.00 0.00 0.00 0.00 0.00 0.00 0.01 0.01 0.02 0.01 0.01 0.02 0.01 0.02 0.02 0.01 0.02 0.02 0.02 0.01 0.01 0.01 0.01 0.01 0.01 0.02 0.03 0.04 0.04 0.03 0.01 0.00 0.01
0.01 0.01 0.02 0.02 0.02 0.01 0.01 0.00 0.01 0.01 0.01 0.01 0.01 0.00 0.00 0.00 0.00 0.00 0.00 0.00 0.00 0.00 0.00 0.01 0.01 0.01 0.01 0.01 0.01 0.01 0.02 0.02 0.01 0.01 0.01 0.01 0.01 0.01 0.02 0.02 0.01 0.01 0.02 0.04 0.04 0.03 0.02 0.01 0.01
0.01 0.01 0.01 0.02 0.02 0.02 0.02 0.02 0.02 0.02 0.01 0.01 0.01 0.00 0.00 0.00 0.01 0.01 0.01 0.00 0.00 0.00 0.00 0.00 0.01 0.01 0.00 0.01 0.01 0.01 0.02 0.02 0.02 0.01 0.01 0.01 0.01 0.01 0.01 0.02 0.01 0.01 0.02 0.03 0.05 0.04 0.03 0.03 0.02
0.01 0.00 0.00 0.01 0.02 0.02 0.02 0.02 0.02 0.02 0.01 0.01 0.01 0.00 0.00 0.00 0.00 0.00 0.00 0.00 0.00 0.00 0.00 0.00 0.00 0.00 0.01 0.01 0.02 0.02 0.03 0.03 0.02 0.02 0.02 0.01 0.01 0.01 0.01 0.01 0.01 0.01 0.02 0.03 0.04 0.03 0.03 0.03 0.03
0.01 0.01 0.01 0.01 0.01 0.02 0.02 0.02 0.02 0.02 0.02 0.02 0.02 0.01 0.01 0.00 0.00 0.00 0.00 0.00 0.00 0.00 0.00 0.00 0.01 0.01 0.01 0.01 0.01 0.01 0.02 0.02 0.02 0.02 0.01 0.01 0.01 0.01 0.01 0.01 0.01 0.01 0.01 0.03 0.04 0.04 0.03 0.02 0.01
0.01 0.01 0.01 0.01 0.02 0.02 0.02 0.01 0.01 0.02 0.02 0.02 0.02 0.01 0.01 0.01 0.01 0.00 0.00 0.00 0.00 0.00 0.00 0.01 0.01 0.02 0.02 0.02 0.02 0.02 0.02 0.02 0.01 0.01 0.01 0.01 0.01 0.01 0.01 0.01 0.01 0.01 0.01 0.03 0.04 0.05 0.03 0.01 0.01
0.01 0.01 0.01 0.02 0.02 0.02 0.02 0.01 0.01 0.02 0.03 0.03 0.03 0.02 0.02 0.02 0.02 0.01 0.01 0.01 0.01 0.01 0.01 0.01 0.01 0.02 0.02 0.03 0.03 0.03 0.02 0.02 0.02 0.02 0.01 0.01 0.01 0.01 0.01 0.01 0.01 0.01 0.02 0.03 0.04 0.05 0.03 0.02 0.01
0.02 0.01 0.01 0.02 0.02 0.03 0.01 0.01 0.00 0.01 0.03 0.05 0.06 0.07 0.05 0.04 0.03 0.02 0.01 0.02 0.02 0.02 0.02 0.03 0.03 0.03 0.03 0.03 0.02 0.02 0.02 0.03 0.03 0.02 0.01 0.01 0.01 0.01 0.01 0.02 0.02 0.02 0.02 0.04 0.05 0.06 0.04 0.02 0.01
0.02 0.02 0.03 0.03 0.02 0.02 0.01 0.01 0.00 0.01 0.01 0.02 0.03 0.04 0.04 0.04 0.04 0.03 0.02 0.02 0.03 0.03 0.03 0.04 0.03 0.03 0.02 0.01 0.01 0.01 0.01 0.02 0.01 0.01 0.01 0.01 0.01 0.01 0.01 0.02 0.03 0.02 0.02 0.04 0.07 0.06 0.04 0.02 0.01
0.01 0.01 0.02 0.03 0.03 0.01 0.01 0.01 0.00 0.00 0.00 0.00 0.00 0.01 0.02 0.03 0.04 0.04 0.04 0.03 0.03 0.03 0.03 0.02 0.02 0.02 0.01 0.01 0.02 0.02 0.02 0.02 0.02 0.02 0.01 0.01 0.00 0.00 0.00 0.01 0.02 0.03 0.03 0.04 0.06 0.06 0.03 0.02 0.01
0.01 0.01 0.02 0.02 0.02 0.02 0.01 0.00 0.00 0.00 0.00 0.00 0.00 0.00 0.01 0.01 0.03 0.04 0.04 0.03 0.02 0.02 0.02 0.02 0.02 0.02 0.01 0.01 0.01 0.01 0.02 0.02 0.01 0.01 0.01 0.00 0.00 0.00 0.00 0.01 0.01 0.02 0.03 0.03 0.04 0.04 0.02 0.01 0.02
0.01 0.00 0.01 0.02 0.02 0.01 0.01 0.00 0.00 0.00 0.00 0.01 0.01 0.00 0.00 0.00 0.01 0.03 0.03 0.02 0.02 0.02 0.01 0.01 0.02 0.03 0.02 0.01 0.01 0.01 0.01 0.01 0.01 0.01 0.00 0.00 0.00 0.00 0.00 0.01 0.01 0.02 0.02 0.03 0.03 0.02 0.01 0.00 0.01
0.01 0.01 0.01 0.02 0.02 0.02 0.01 0.00 0.00 0.00 0.00 0.00 0.00 0.00 0.00 0.00 0.01 0.02 0.02 0.02 0.02 0.01 0.01 0.02 0.02 0.02 0.03 0.02 0.01 0.01 0.01 0.01 0.01 0.01 0.01 0.00 0.00 0.00 0.00 0.01 0.02 0.03 0.02 0.02 0.02 0.02 0.01 0.01 0.01
0.01 0.01 0.01 0.02 0.02 0.02 0.01 0.00 0.00 0.01 0.01 0.01 0.01 0.01 0.00 0.01 0.01 0.01 0.01 0.02 0.02 0.02 0.02 0.03 0.03 0.03 0.03 0.02 0.01 0.00 0.01 0.01 0.01 0.01 0.01 0.01 0.00 0.00 0.00 0.00 0.01 0.02 0.02 0.01 0.01 0.01 0.01 0.01 0.01
MSLP
1007.89 1009.01 1010.36 1011.78 1013.11 1014.21 1014.98 1015.39 1015.48 1015.34 1015.09 1014.86 1014.72 1014.71 1014.80 1014.93 1015.02 1014.99 1014.80 1014.47 1014.03 1013.56 1013.14 1012.84 1012.68 1012.66 1012.73 1012.84 1012.94 1013.00 1013.01 1012.99 1012.97 1013.00 1013.09 1013.23 1013.43 1013.64 1013.84 1014.01 1014.14 1014.24 1014.34 1014.47 1014.62 1014.81 1015.01 1015.21 1015.37
1008.30 1009.58 1011.03 1012.47 1013.73 1014.69 1015.27 1015.46 1015.34 1015.00 1014.61 1014.28 1014.09 1014.07 1014.19 1014.38 1014.54 1014.59 1014.50 1014.25 1013.90 1013.52 1013.18 1012.93 1012.82 1012.83 1012.93 1013.06 1013.18 1013.27 1013.31 1013.33 1013.34 1013.39 1013.48 1013.62 1013.78 1013.95 1014.09 1014.20 1014.28 1014.35 1014.43 1014.55 1014.71 1014.91 1015.13 1015.35 1015.54
1008.86 1010.25 1011.73 1013.12 1014.27 1015.06 1015.44 1015.44 1015.13 1014.66 1014.18 1013.81 1013.62 1013.62 1013.78 1014.01 1014.22 1014.33 1014.29 1014.11 1013.83 1013.52 1013.25 1013.07 1013.01 1013.06 1013.19 1013.34 1013.49 1013.59 1013.66 1013.69 1013.72 1013.77 1013.86 1013.96 1014.08 1014.19 1014.27 1014.31 1014.35 1014.38 1014.44 1014.56 1014.73 1014.96 1015.21 1015.46 1015.68
1009.56 1011.00 1012.45 1013.74 1014.74 1015.35 1015.54 1015.38 1014.95 1014.41 1013.91 1013.54 1013.38 1013.42 1013.61 1013.87 1014.10 1014.23 1014.21 1014.07 1013.84 1013.59 1013.38 1013.26 1013.25 1013.35 1013.50 1013.67 1013.83 1013.94 1014.01 1014.05 1014.09 1014.13 1014.19 1014.26 1014.33 1014.39 1014.41 1014.40 1014.39 1014.39 1014.44 1014.56 1014.75 1015.00 1015.28 1015.57 1015.83
1010.34 1011.76 1013.13 1014.28 1015.10 1015.53 1015.58 1015.30 1014.82 1014.27 1013.79 1013.48 1013.38 1013.47 1013.68 1013.95 1014.17 1014.29 1014.27 1014.14 1013.94 1013.73 1013.58 1013.51 1013.55 1013.67 1013.85 1014.03 1014.18 1014.28 1014.35 1014.38 1014.41 1014.44 1014.48 1014.53 1014.57 1014.59 1014.57 1014.53 1014.49 1014.47 1014.50 1014.61 1014.81 1015.07 1015.38 1015.69 1015.98
1011.09 1012.44 1013.67 1014.65 1015.29 1015.56 1015.49 1015.16 1014.68 1014.19 1013.80 1013.58 1013.56 1013.70 1013.93 1014.19 1014.38 1014.47 1014.43 1014.29 1014.11 1013.94 1013.83 1013.81 1013.89 1014.03 1014.21 1014.37 1014.50 1014.59 1014.63 1014.66 1014.68 1014.71 1014.75 1014.80 1014.83 1014.84 1014.80 1014.75 1014.68 1014.64 1014.67 1014.77 1014.95 1015.21 1015.52 1015.84 1016.15
1011.71 1012.93 1013.98 1014.77 1015.23 1015.37 1015.23 1014.89 1014.47 1014.08 1013.82 1013.72 1013.79 1013.98 1014.24 1014.48 1014.64 1014.69 1014.63 1014.49 1014.32 1014.19 1014.12 1014.14 1014.24 1014.39 1014.55 1014.69 1014.79 1014.85 1014.87 1014.88 1014.90 1014.95 1015.01 1015.08 1015.14 1015.16 1015.13 1015.07 1015.00 1014.95 1014.95 1015.03 1015.19 1015.43 1015.72 1016.03 1016.32
1012.13 1013.17 1014.01 1014.60 1014.90 1014.92 1014.74 1014.44 1014.12 1013.86 1013.74 1013.78 1013.95 1014.20 1014.47 1014.70 1014.84 1014.86 1014.79 1014.66 1014.52 1014.43 1014.41 1014.46 1014.58 1014.73 1014.87 1014.98 1015.04 1015.06 1015.06 1015.06 1015.10 1015.18 1015.28 1015.39 1015.49 1015.54 1015.54 1015.49 1015.42 1015.36 1015.34 1015.39 1015.52 1015.72 1015.97 1016.24 1016.51
1012.30 1013.13 1013.76 1014.15 1014.30 1014.24 1014.05 1013.81 1013.60 1013.49 1013.52 1013.68 1013.94 1014.25 1014.55 1014.77 1014.90 1014.91 1014.85 1014.75 1014.66 1014.62 1014.65 1014.74 1014.87 1015.02 1015.13 1015.21 1015.23 1015.22 1015.21 1015.22 1015.28 1015.40 1015.55 1015.72 1015.86 1015.96 1015.99 1015.97 1015.90 1015.83 1015.79 1015.81 1015.90 1016.06 1016.27 1016.50 1016.72
1012.25 1012.88 1013.29 1013.50 1013.52 1013.41 1013.23 1013.06 1012.97 1012.99 1013.15 1013.42 1013.76 1014.11 1014.43 1014.65 1014.78 1014.81 1014.78 1014.72 1014.69 1014.71 1014.79 1014.92 1015.08 1015.22 1015.33 1015.38 1015.38 1015.35 1015.34 1015.37 1015.46 1015.61 1015.81 1016.03 1016.23 1016.37 1016.44 1016.43 1016.38 1016.31 1016.26 1016.25 1016.31 1016.44 1016.60 1016.79 1016.98
1012.07 1012.50 1012.73 1012.79 1012.71 1012.56 1012.41 1012.31 1012.31 1012.45 1012.70 1013.04 1013.43 1013.80 1014.12 1014.35 1014.48 1014.54 1014.55 1014.55 1014.58 1014.67 1014.80 1014.98 1015.16 1015.32 1015.42 1015.47 1015.47 1015.45 1015.45 1015.49 1015.62 1015.81 1016.05 1016.31 1016.54 1016.71 1016.81 1016.83 1016.80 1016.74 1016.69 1016.68 1016.73 1016.83 1016.98 1017.15 1017.31
1011.86 1012.12 1012.20 1012.15 1012.02 1011.86 1011.73 1011.69 1011.76 1011.96 1012.26 1012.63 1013.03 1013.39 1013.70 1013.91 1014.05 1014.12 1014.17 1014.22 1014.31 1014.46 1014.65 1014.87 1015.09 1015.27 1015.40 1015.47 1015.49 1015.50 1015.53 1015.60 1015.75 1015.97 1016.23 1016.51 1016.77 1016.97 1017.09 1017.13 1017.12 1017.08 1017.05 1017.06 1017.13 1017.24 1017.39 1017.55 1017.71
1011.72 1011.86 1011.84 1011.73 1011.56 1011.41 1011.31 1011.31 1011.42 1011.64 1011.94 1012.29 1012.64 1012.97 1013.23 1013.42 1013.54 1013.62 1013.69 1013.77 1013.91 1014.09 1014.32 1014.58 1014.84 1015.07 1015.24 1015.36 1015.44 1015.50 1015.57 1015.69 1015.86 1016.09 1016.36 1016.65 1016.90 1017.11 1017.24 1017.31 1017.33 1017.34 1017.35 1017.40 1017.50 1017.65 1017.83 1018.01 1018.18
1011.74 1011.80 1011.73 1011.59 1011.43 1011.29 1011.22 1011.24 1011.35 1011.54 1011.80 1012.08 1012.35 1012.60 1012.79 1012.93 1013.02 1013.08 1013.15 1013.24 1013.38 1013.58 1013.83 1014.12 1014.42 1014.70 1014.94 1015.14 1015.29 1015.43 1015.57 1015.73 1015.93 1016.17 1016.44 1016.71 1016.95 1017.15 1017.30 1017.40 1017.46 1017.52 1017.59 1017.70 1017.86 1018.06 1018.28 1018.50 1018.69
1011.94 1011.95 1011.86 1011.73 1011.59 1011.48 1011.43 1011.45 1011.52 1011.65 1011.82 1012.00 1012.17 1012.31 1012.42 1012.49 1012.53 1012.56 1012.60 1012.67 1012.79 1012.98 1013.23 1013.53 1013.86 1014.19 1014.51 1014.80 1015.06 1015.29 1015.51 1015.73 1015.96 1016.21 1016.46 1016.71 1016.94 1017.14 1017.30 1017.43 1017.54 1017.66 1017.80 1017.98 1018.20 1018.45 1018.72 1018.98 1019.20
1012.29 1012.28 1012.20 1012.09 1011.99 1011.91 1011.86 1011.84 1011.86 1011.90 1011.95 1012.00 1012.05 1012.09 1012.11 1012.12 1012.11 1012.09 1012.08 1012.11 1012.19 1012.34 1012.56 1012.85 1013.20 1013.58 1013.99 1014.38 1014.75 1015.09 1015.40 1015.69 1015.96 1016.22 1016.46 1016.69 1016.91 1017.10 1017.28 1017.44 1017.60 1017.78 1017.99 1018.23 1018.51 1018.81 1019.12 1019.41 1019.65
1012.73 1012.71 1012.65 1012.58 1012.51 1012.45 1012.39 1012.33 1012.25 1012.17 1012.09 1012.01 1011.94 1011.88 1011.83 1011.77 1011.72 1011.67 1011.63 1011.60 1011.63 1011.71 1011.89 1012.15 1012.51 1012.93 1013.41 1013.90 1014.38 1014.84 1015.25 1015.61 1015.93 1016.20 1016.44 1016.67 1016.87 1017.07 1017.27 1017.47 1017.68 1017.91 1018.17 1018.47 1018.79 1019.12 1019.45 1019.76 1020.02
1013.17 1013.15 1013.12 1013.09 1013.06 1013.00 1012.92 1012.78 1012.60 1012.38 1012.15 1011.93 1011.74 1011.60 1011.50 1011.42 1011.35 1011.29 1011.22 1011.16 1011.13 1011.16 1011.28 1011.50 1011.84 1012.29 1012.82 1013.39 1013.98 1014.54 1015.05 1015.49 1015.85 1016.16 1016.41 1016.64 1016.85 1017.06 1017.28 1017.51 1017.77 1018.05 1018.35 1018.67 1019.01 1019.36 1019.70 1020.01 1020.27
1013.51 1013.51 1013.53 1013.55 1013.55 1013.50 1013.37 1013.14 1012.83 1012.45 1012.06 1011.70 1011.41 1011.20 1011.07 1011.00 1010.96 1010.92 1010.87 1010.79 1010.73 1010.71 1010.77 1010.94 1011.25 1011.70 1012.26 1012.90 1013.57 1014.22 1014.81 1015.32 1015.74 1016.08 1016.36 1016.60 1016.82 1017.06 1017.30 1017.57 1017.87 1018.18 1018.50 1018.84 1019.17 1019.51 1019.84 1020.14 1020.40
1013.70 1013.75 1013.84 1013.93 1013.98 1013.93 1013.73 1013.39 1012.92 1012.37 1011.80 1011.30 1010.90 1010.64 1010.51 1010.47 1010.49 1010.52 1010.52 1010.48 1010.41 1010.36 1010.38 1010.50 1010.77 1011.20 1011.77 1012.44 1013.16 1013.87 1014.53 1015.10 1015.57 1015.95 1016.26 1016.52 1016.77 1017.03 1017.31 1017.61 1017.93 1018.27 1018.60 1018.93 1019.26 1019.57 1019.88 1020.16 1020.43
1013.70 1013.85 1014.05 1014.24 1014.35 1014.30 1014.04 1013.57 1012.92 1012.17 1011.41 1010.74 1010.23 1009.91 1009.79 1009.82 1009.93 1010.06 1010.15 1010.18 1010.15 1010.11 1010.10 1010.19 1010.41 1010.81 1011.36 1012.03 1012.77 1013.52 1014.22 1014.83 1015.34 1015.75 1016.10 1016.39 1016.67 1016.96 1017.27 1017.60 1017.94 1018.29 1018.62 1018.94 1019.25 1019.54 1019.82 1020.10 1020.36
1013.53 1013.83 1014.19 1014.52 1014.71 1014.66 1014.34 1013.72 1012.88 1011.91 1010.94 1010.09 1009.45 1009.07 1008.95 1009.04 1009.26 1009.52 1009.74 1009.87 1009.92 1009.91 1009.91 1009.97 1010.16 1010.51 1011.02 1011.67 1012.40 1013.15 1013.87 1014.51 1015.05 1015.50 1015.86 1016.19 1016.50 1016.81 1017.15 1017.50 1017.86 1018.22 1018.55 1018.86 1019.15 1019.42 1019.68 1019.95 1020.22
1013.23 1013.73 1014.30 1014.78 1015.07 1015.05 1014.66 1013.90 1012.86 1011.66 1010.46 1009.41 1008.63 1008.17 1008.04 1008.19 1008.51 1008.91 1009.26 1009.53 1009.68 1009.74 1009.76 1009.82 1009.98 1010.29 1010.76 1011.36 1012.07 1012.80 1013.51 1014.16 1014.71 1015.18 1015.57 1015.92 1016.25 1016.59 1016.94 1017.31 1017.69 1018.05 1018.38 1018.68 1018.95 1019.21 1019.46 1019.73 1020.01
1012.86 1013.59 1014.37 1015.04 1015.43 1015.44 1014.99 1014.11 1012.87 1011.45 1010.02 1008.77 1007.83 1007.28 1007.13 1007.31 1007.73 1008.25 1008.75 1009.15 1009.41 1009.56 1009.63 1009.71 1009.85 1010.13 1010.55 1011.11 1011.76 1012.47 1013.16 1013.80 1014.35 1014.83 1015.23 1015.60 1015.94 1016.30 1016.67 1017.05 1017.43 1017.79 1018.12 1018.41 1018.67 1018.92 1019.17 1019.43 1019.72
1012.46 1013.42 1014.40 1015.23 1015.73 1015.77 1015.28 1014.28 1012.89 1011.27 1009.64 1008.21 1007.12 1006.48 1006.29 1006.49 1006.97 1007.59 1008.21 1008.74 1009.12 1009.36 1009.50 1009.60 1009.75 1010.00 1010.38 1010.89 1011.50 1012.16 1012.83 1013.45 1014.00 1014.47 1014.88 1015.25 1015.61 1015.97 1016.34 1016.72 1017.10 1017.46 1017.79 1018.07 1018.33 1018.57 1018.81 1019.07 1019.35
1012.05 1013.18 1014.33 1015.29 1015.87 1015.93 1015.41 1014.34 1012.83 1011.07 1009.30 1007.73 1006.53 1005.81 1005.58 1005.78 1006.30 1006.99 1007.70 1008.33 1008.82 1009.14 1009.35 1009.49 1009.65 1009.88 1010.23 1010.71 1011.27 1011.90 1012.53 1013.13 1013.67 1014.14 1014.55 1014.92 1015.27 1015.63 1016.00 1016.37 1016.74 1017.10 1017.41 1017.69 1017.94 1018.17 1018.40 1018.64 1018.91
1011.63 1012.86 1014.09 1015.11 1015.73 1015.80 1015.27 1014.16 1012.60 1010.78 1008.94 1007.31 1006.06 1005.29 1005.03 1005.23 1005.76 1006.49 1007.26 1007.96 1008.51 1008.91 1009.17 1009.35 1009.53 1009.77 1010.10 1010.55 1011.08 1011.67 1012.27 1012.85 1013.37 1013.83 1014.24 1014.61 1014.96 1015.31 1015.66 1016.03 1016.38 1016.72 1017.03 1017.30 1017.54 1017.75 1017.96 1018.18 1018.43
1011.17 1012.38 1013.60 1014.60 1015.20 1015.27 1014.73 1013.64 1012.11 1010.32 1008.52 1006.92 1005.68 1004.92 1004.67 1004.85 1005.39 1006.12 1006.91 1007.63 1008.22 1008.66 1008.96 1009.19 1009.39 1009.63 1009.96 1010.39 1010.90 1011.47 1012.04 1012.60 1013.11 1013.56 1013.96 1014.32 1014.67 1015.00 1015.35 1015.70 1016.04 1016.36 1016.65 1016.91 1017.14 1017.33 1017.52 1017.72 1017.92
1010.63 1011.71 1012.80 1013.69 1014.22 1014.25 1013.74 1012.71 1011.29 1009.64 1007.97 1006.50 1005.37 1004.68 1004.46 1004.66 1005.18 1005.89 1006.65 1007.36 1007.96 1008.41 1008.73 1008.98 1009.21 1009.47 1009.81 1010.23 1010.72 1011.27 1011.83 1012.37 1012.86 1013.31 1013.70 1014.05 1014.39 1014.72 1015.05 1015.39 1015.72 1016.03 1016.31 1016.56 1016.77 1016.95 1017.12 1017.29 1017.46
1010.00 1010.85 1011.71 1012.42 1012.82 1012.80 1012.32 1011.41 1010.16 1008.72 1007.29 1006.03 1005.08 1004.52 1004.37 1004.59 1005.09 1005.75 1006.46 1007.13 1007.70 1008.14 1008.48 1008.74 1008.99 1009.28 1009.63 1010.05 1010.54 1011.07 1011.61 1012.13 1012.61 1013.04 1013.43 1013.78 1014.11 1014.44 1014.77 1015.10 1015.42 1015.73 1016.01 1016.25 1016.46 1016.64 1016.79 1016.94 1017.08
Thickness
5783 5782 5778 5764 5738 5715 5709 5717 5724 5726 5728 5734 5737 5733 5727 5722 5718 5716 5733 5742 5743 5744 5745 5746 5747 5748 5749 5749 5750 5750 5751 5752 5752 5752 5753 5754 5754 5755 5756 5756 5757 5758 5758 5759 5760 5762 5761 5760 5760
5782 5779 5767 5747 5718 5699 5706 5719 5721 5727 5732 5736 5735 5732 5726 5724 5729 5730 5735 5740 5742 5742 5743 5744 5745 5745 5746 5747 5747 5747 5748 5748 5749 5749 5749 5750 5751 5752 5752 5753 5754 5754 5755 5756 5756 5757 5757 5757 5757
5780 5774 5752 5730 5711 5702 5710 5720 5724 5731 5736 5734 5729 5728 5725 5723 5729 5731 5736 5739 5739 5740 5740 5741 5742 5743 5743 5743 5744 5744 5745 5745 5745 5746 5746 5746 5747 5748 5748 5749 5750 5751 5751 5752 5753 5753 5753 5754 5754
5773 5758 5742 5721 5710 5714 5719 5723 5727 5729 5731 5732 5728 5721 5724 5730 5731 5734 5736 5737 5736 5737 5737 5738 5739 5739 5740 5740 5740 5741 5741 5742 5742 5742 5742 5743 5743 5744 5744 5745 5746 5747 5748 5748 5749 5749 5749 5750 5750
5764 5743 5722 5708 5711 5719 5724 5728 5729 5726 5725 5726 5724 5717 5718 5728 5734 5734 5734 5734 5733 5734 5734 5735 5736 5736 5737 5737 5737 5737 5738 5738 5738 5738 5739 5739 5740 5740 5741 5742 5742 5743 5744 5744 5744 5745 5745 5746 5746
5746 5732 5707 5700 5709 5719 5724 5729 5728 5724 5723 5724 5721 5716 5716 5726 5729 5730 5731 5731 5731 5731 5731 5732 5732 5733 5733 5733 5733 5734 5734 5735 5735 5735 5735 5735 5736 5736 5737 5738 5738 5739 5739 5740 5740 5741 5741 5741 5742
5737 5721 5707 5706 5707 5714 5723 5729 5724 5721 5720 5722 5723 5713 5714 5721 5726 5728 5728 5727 5727 5727 5727 5728 5728 5729 5729 5730 5730 5730 5730 5731 5731 5731 5731 5731 5731 5732 5733 5733 5734 5734 5735 5735 5736 5736 5737 5737 5738
5743 5722 5708 5705 5706 5712 5725 5728 5727 5723 5721 5728 5726 5713 5711 5720 5725 5725 5724 5723 5724 5724 5724 5724 5724 5724 5725 5725 5726 5726 5726 5726 5727 5727 5727 5727 5727 5727 5728 5729 5729 5730 5730 5731 5731 5732 5732 5733 5733
5745 5715 5703 5708 5710 5716 5725 5723 5726 5729 5724 5723 5724 5722 5723 5725 5723 5720 5718 5718 5719 5720 5720 5720 5720 5721 5721 5721 5721 5722 5722 5722 5722 5722 5722 5722 5722 5723 5723 5724 5725 5725 5725 5726 5727 5727 5727 5727 5728
5733 5710 5715 5723 5723 5722 5724 5723 5722 5720 5716 5715 5717 5720 5723 5721 5719 5716 5714 5713 5714 5715 5716 5717 5717 5717 5717 5717 5717 5717 5717 5717 5717 5717 5717 5718 5717 5718 5718 5719 5719 5720 5720 5721 5721 5722 5722 5722 5722
5732 5720 5726 5729 5730 5729 5724 5722 5724 5716 5710 5715 5715 5716 5717 5716 5714 5713 5712 5712 5712 5713 5713 5714 5714 5713 5713 5713 5713 5713 5713 5713 5713 5713 5713 5713 5713 5713 5713 5714 5714 5714 5715 5715 5715 5716 5716 5716 5716
5729 5728 5731 5731 5733 5729 5724 5722 5719 5718 5719 5725 5724 5721 5717 5713 5711 5711 5711 5711 5711 5711 5711 5712 5711 5710 5710 5709 5709 5709 5708 5708 5708 5708 5708 5708 5708 5707 5707 5708 5708 5709 5709 5709 5710 5710 5710 5710 5711
5726 5727 5731 5732 5731 5728 5725 5720 5719 5718 5724 5725 5722 5718 5714 5712 5711 5711 5712 5711 5710 5709 5709 5709 5709 5707 5707 5706 5705 5705 5704 5704 5704 5703 5703 5703 5703 5702 5702 5702 5703 5703 5704 5704 5704 5704 5704 5705 5705
5726 5725 5725 5727 5726 5727 5720 5718 5717 5717 5721 5719 5716 5713 5712 5711 5710 5709 5709 5708 5707 5707 5707 5707 5706 5705 5703 5702 5701 5701 5700 5699 5699 5699 5698 5698 5698 5697 5697 5697 5697 5698 5698 5699 5699 5699 5698 5698 5699
5727 5718 5716 5720 5721 5721 5718 5708 5711 5718 5718 5714 5712 5710 5710 5709 5709 5708 5708 5707 5706 5705 5704 5704 5703 5701 5700 5698 5698 5697 5696 5695 5694 5694 5693 5693 5693 5692 5692 5692 5691 5692 5693 5693 5693 5693 5693 5693 5693
5717 5706 5699 5711 5716 5717 5710 5698 5712 5716 5713 5708 5707 5706 5706 5706 5707 5707 5706 5706 5705 5703 5701 5701 5701 5697 5696 5695 5694 5693 5692 5691 5690 5689 5689 5688 5688 5688 5687 5687 5686 5687 5688 5688 5688 5687 5687 5686 5685
5698 5690 5692 5702 5713 5712 5705 5699 5710 5713 5710 5705 5704 5703 5703 5703 5704 5704 5705 5704 5703 5701 5699 5697 5696 5694 5692 5691 5690 5689 5687 5686 5685 5685 5684 5684 5683 5683 5682 5681 5681 5681 5682 5682 5682 5681 5681 5679 5679
5688 5689 5691 5695 5706 5706 5700 5699 5707 5709 5707 5703 5702 5701 5700 5701 5703 5704 5703 5703 5701 5699 5697 5694 5692 5690 5689 5686 5685 5683 5682 5681 5681 5680 5679 5679 5678 5678 5677 5676 5675 5675 5675 5675 5675 5675 5674 5674 5674
5699 5693 5690 5696 5707 5702 5696 5697 5703 5705 5703 5700 5699 5699 5699 5701 5703 5702 5701 5700 5698 5696 5693 5691 5689 5687 5685 5682 5679 5677 5676 5676 5675 5675 5674 5673 5673 5672 5671 5670 5669 5669 5669 5669 5669 5669 5668 5666 5667
5698 5691 5690 5696 5704 5700 5694 5695 5702 5704 5704 5704 5702 5700 5700 5699 5699 5698 5698 5697 5695 5693 5691 5689 5687 5684 5683 5680 5677 5675 5673 5671 5671 5670 5669 5668 5667 5666 5666 5665 5664 5663 5663 5662 5662 5663 5661 5660 5661
5694 5690 5691 5691 5696 5697 5692 5688 5696 5703 5706 5706 5705 5703 5702 5700 5698 5696 5695 5694 5692 5691 5689 5688 5684 5682 5680 5678 5674 5672 5669 5667 5665 5664 5664 5663 5663 5662 5661 5660 5658 5657 5657 5656 5656 5656 5656 5654 5654
5688 5700 5697 5692 5682 5675 5682 5667 5688 5696 5698 5701 5702 5701 5701 5701 5699 5697 5695 5693 5691 5690 5688 5685 5682 5679 5677 5674 5671 5668 5665 5661 5660 5659 5659 5659 5658 5657 5656 5655 5653 5652 5651 5651 5651 5651 5651 5650 5648
5696 5701 5695 5689 5679 5670 5673 5667 5679 5691 5692 5699 5701 5702 5702 5701 5699 5697 5695 5694 5691 5689 5686 5683 5679 5676 5673 5671 5668 5665 5662 5659 5657 5655 5655 5654 5653 5652 5651 5650 5648 5647 5646 5646 5646 5646 5646 5645 5644
5700 5690 5682 5672 5666 5658 5669 5663 5671 5682 5694 5701 5704 5703 5703 5701 5699 5696 5694 5691 5689 5686 5683 5680 5676 5673 5671 5668 5665 5663 5659 5656 5654 5652 5650 5649 5648 5647 5646 5645 5644 5643 5642 5641 5641 5641 5641 5640 5639
5691 5672 5654 5653 5646 5652 5667 5664 5672 5694 5700 5703 5705 5704 5703 5700 5696 5693 5690 5687 5685 5683 5680 5676 5673 5670 5667 5665 5662 5660 5658 5655 5653 5650 5647 5645 5643 5641 5641 5640 5639 5638 5638 5637 5637 5636 5635 5634 5634
5683 5674 5652 5645 5642 5648 5661 5659 5680 5699 5703 5705 5706 5705 5701 5697 5695 5693 5690 5687 5684 5681 5678 5674 5671 5667 5664 5662 5659 5657 5655 5652 5650 5648 5645 5642 5640 5639 5638 5636 5635 5635 5634 5633 5632 5631 5629 5629 5628
5677 5669 5671 5652 5648 5644 5651 5664 5682 5699 5700 5701 5701 5699 5697 5695 5692 5691 5688 5685 5682 5679 5675 5673 5669 5665 5662 5659 5657 5654 5652 5649 5647 5644 5642 5640 5638 5636 5634 5632 5631 5630 5629 5628 5627 5626 5624 5623 5623
5685 5671 5656 5648 5640 5637 5648 5657 5667 5686 5691 5694 5694 5694 5693 5692 5689 5687 5684 5682 5679 5676 5673 5670 5666 5663 5659 5656 5653 5651 5648 5646 5644 5641 5638 5636 5634 5632 5630 5628 5627 5626 5624 5623 5622 5621 5619 5618 5617
5673 5667 5658 5646 5644 5635 5636 5654 5682 5685 5690 5690 5692 5692 5691 5689 5687 5684 5681 5678 5675 5672 5668 5665 5662 5659 5655 5652 5650 5647 5644 5642 5639 5637 5634 5632 5629 5627 5625 5624 5622 5620 5619 5618 5617 5615 5614 5613 5611
5679 5671 5658 5648 5642 5637 5635 5652 5688 5687 5688 5689 5689 5690 5689 5687 5683 5680 5677 5673 5669 5666 5663 5661 5658 5655 5652 5650 5646 5643 5640 5637 5635 5632 5630 5627 5625 5623 5621 5619 5617 5615 5613 5612 5611 5610 5608 5607 5606